Regional Weather Roundup
Issued by NWS New Orleans/Baton Rouge, LA

Home | Current Version | Previous Version | Text Only | Print | Product List | Glossary On
Versions: 1 2 3 4 5 6 7 8 9 10 11 12 13 14 15 16 17 18 19 20 21 22 23 24 25 26 27 28 29 30 31 32 33 34 35 36 37 38 39 40 41 42 43 44 45 46 47 48 49 50
000
ASUS44 KLIX 212105
RWRLIX
NEW ORLEANS REGIONAL WEATHER ROUNDUP
NATIONAL WEATHER SERVICE NEW ORLEANS LA
400 PM CDT SUN SEP 21 2014

NOTE: "FAIR" INDICATES FEW OR NO CLOUDS BELOW 12,000 FEET WITH NO
      SIGNIFICANT WEATHER AND/OR OBSTRUCTIONS TO VISIBILITY.
      SKY/WX - SKY CONDITION AND SIGNIFICANT WEATHER.
      TMP - AIR TEMPERATURE.     DP    - DEWPOINT TEMPERATURE.
      RH  - RELATIVE HUMIDITY.   PRES  - PRESSURE.
      HI  - HEAT INDEX.          WCI   - WIND CHILL INDEX.

*  THESE STATIONS ARE NOT NWS OR FAA STATIONS AND ARE NOT UNDER
   NWS QUALITY CONTROL.

LAZ038-040-048-061>063-065>067-069-212200-
SOUTHEAST LOUISIANA

CITY           SKY/WX    TMP DP  RH WIND       PRES   REMARKS
N.O. AUDUBON     N/A     88  70  55 MISG        N/A
N.O. INTL ARPT MOSUNNY   88  66  48 NE7       29.97F
N.O. LAKEFRONT SUNNY     87  68  52 NE7       29.98F
N.O. DOWNTOWN*   N/A     88  64  45 E6        29.98S
SLIDELL        SUNNY     88  65  46 N5        29.97F
BATON ROUGE    SUNNY     89  65  44 NE7       29.98F
BOOTHVILLE     MOSUNNY   85  74  69 E13       29.97S
BELLE CHASSE   MOSUNNY   87  63  44 NE10      29.97F
BOGALUSA*        N/A     90  63  40 N6        29.99F
GALLIANO*      NOT AVBL
NEW ROADS*     MOCLDY    89  66  46 NE7       29.98F
GONZALES*        N/A     88  67  49 N5        29.97F
HAMMOND*       MOSUNNY   91  61  35 N3        29.99F
HOUMA*         MOSUNNY   88  46  23 N7        29.96F
PORT FOURCHON* PTCLDY    84  73  70 NE13      29.99F

$$

MSZ070-080>082-212200-
SOUTHERN MISSISSIPPI

CITY           SKY/WX    TMP DP  RH WIND       PRES   REMARKS
MCCOMB         SUNNY     90  60  36 MISG      29.99F
GULFPORT       MOSUNNY   87  68  52 S8        29.97F
BILOXI         SUNNY     87  70  57 S9        29.97F
PASCAGOULA     MOSUNNY   85  70  60 SE7       29.97F

$$

COASTAL OBSERVATIONS
LAKE AND NEARSHORE STATIONS

STATION/POSITION TIME  TEMP    WIND        PRES    WAVE
                       AIR SEA DIR/SP/G            HT/PER
                 (UTC) (F)     (DEG/KT/KT) (MB)    (FT/S)
PASCAGOULA       2100   85     130/ 12/ 15 1014.5
WAVELAND YACHT   2100   83     170/  6/  8 1014.4
GRAND ISLE       2100   83 82   60/ 12/ 16 1015.3
SOUTHWEST PASS   2100   91 90   80/ 15/ 17 1014.6
NEW CANAL        2100   83 81  360/  5/  5 1015.5
SHELL BEACH      2100   83 79   40/  8/ 10 1014.9

OFFSHORE STATIONS

STATION/POSITION TIME  TEMP    WIND        PRES    WAVE
                       AIR SEA DIR/SP/G            HT/PER
                 (UTC) (F)     (DEG/KT/KT) (MB)    (FT/S)
64 S DAUPHIN ISL 2047   82 85   70/ 16/ 17 1014.7    4/ 6

$$



USA.gov is the U.S. government's official web portal to all federal, state and local government web resources and services.